Simultaneous Nadir Overpasses (SNOs) Predictions

Prediction of SNOs between GOES-17 and METOP-C Satellite Orbit:

Table of predicted SNOs for the next 14.0 days since TLE Epoch: 7/27/2024
Index Date Time (GOES-17) GOES-17 Lat,Lon METOP-C Lat,Lon Distance(km) Time Diff (sec)
1 07/27/2024 04:38:37 -0.00,-104.69 0.00,-106.68 221.33 80
2 07/28/2024 04:15:12 -0.00,-104.69 0.69,-101.60 353.02 80
3 07/29/2024 16:36:45 0.00,-104.73 0.34,-106.16 163.50 80
4 07/30/2024 16:13:27 0.00,-104.73 -0.77,-101.17 405.36 80
5 08/01/2024 04:35:08 -0.01,-104.70 -0.26,-105.76 121.82 80
6 08/02/2024 04:11:49 -0.00,-104.70 0.86,-100.77 447.03 80
7 08/03/2024 16:33:23 0.00,-104.73 0.17,-105.33 69.44 80
8 08/04/2024 16:10:05 -0.00,-104.73 -1.01,-100.35 499.76 80
9 08/06/2024 04:31:46 -0.00,-104.71 -0.06,-104.94 26.49 80
10 08/08/2024 16:27:20 -0.00,-104.75 -0.05,-104.51 27.20 80
